Location: Bonny Doon Airfield
(37.0704°N, 122.1252°W)
Time: 14:03:10
(UTC-08:00)

ISS - Visible Passes

Search period start: 18 January 2019 00:00
Search period end: 28 January 2019 00:00
Orbit: 404 x 410 km, 51.6° (Epoch: 18 January)

Date Brightness Start Highest point End Pass type
(mag) Time Alt. Az. Time Alt. Az. Time Alt. Az.
19 Jan -1.9 19:05:49 10° SSW 19:07:20 21° S 19:07:20 21° S visible
20 Jan -1.9 18:15:28 10° S 18:17:35 16° SE 18:18:34 15° ESE visible
20 Jan -0.6 19:50:43 10° WSW 19:51:19 14° WSW 19:51:19 14° WSW visible
21 Jan -3.9 18:59:11 10° SW 19:02:28 86° NW 19:02:28 86° NW visible
22 Jan -3.3 18:08:00 10° SSW 18:11:09 44° SE 18:13:33 16° ENE visible
22 Jan -0.8 19:45:16 10° W 19:46:17 15° WNW 19:46:17 15° WNW visible
23 Jan -2.4 18:53:16 10° W 18:56:17 33° NW 18:57:15 27° N visible
24 Jan -3.4 18:01:33 10° WSW 18:04:49 62° NW 18:08:05 10° NE visible
24 Jan -0.7 19:40:30 10° NW 19:40:53 11° NW 19:40:53 11° NW visible
25 Jan -1.5 18:47:57 10° WNW 18:50:13 17° NNW 18:51:42 13° N visible
26 Jan -2.1 17:55:46 10° W 17:58:36 26° NNW 18:01:26 10° NNE visible
27 Jan -1.1 18:43:33 10° NNW 18:44:16 10° NNW 18:44:58 10° N visible
